This is the latest recevied weather packets stored in our database for station/object KB4MOX. If no packets are shown the sender has not sent any weather packets the latest 10 day(s).
| Time | Temp. | Humidity | Pressure | Rain* | Wind** | Luminosity | Snow |
|---|---|---|---|---|---|---|---|
| 1788461210 | 34.44° C | 49% | 1016.6 hPa | 0 mm | - | 744 W/m² | - |
| 1788460920 | 35° C | 48% | 1016.7 hPa | 0 mm | - | 130 W/m² | - |
| 1788460604 | 36.11° C | 46% | 1016.7 hPa | 0 mm | - | 184 W/m² | - |
| 1788460299 | 36.11° C | 45% | 1016.8 hPa | 0 mm | - | 778 W/m² | - |
| 1788459998 | 35° C | 47% | 1016.8 hPa | 0 mm | - | 793 W/m² | - |
| 1788459694 | 34.44° C | 49% | 1016.9 hPa | 0 mm | - | 161 W/m² | - |
| 1788459392 | 35.56° C | 48% | 1017 hPa | 0 mm | - | 167 W/m² | - |
| 1788459087 | 35.56° C | 48% | 1017 hPa | 0 mm | - | 221 W/m² | - |
| 1788458782 | 36.11° C | 46% | 1017.1 hPa | 0 mm | - | 774 W/m² | - |
| 1788458477 | 35.56° C | 47% | 1017.1 hPa | 0 mm | - | 774 W/m² | - |
| 1788458176 | 35° C | 50% | 1017.1 hPa | 0 mm | - | 790 W/m² | - |
| 1788457876 | 34.44° C | 50% | 1017.4 hPa | 0 mm | - | 748 W/m² | - |
| 1788457570 | 34.44° C | 51% | 1017.2 hPa | 0 mm | - | 778 W/m² | - |
| 1788457265 | 34.44° C | 51% | 1017.3 hPa | 0 mm | - | 837 W/m² | - |
| 1788456959 | 33.89° C | 50% | 1017.4 hPa | 0 mm | - | 822 W/m² | - |
| 1788456656 | 33.33° C | 52% | 1017.5 hPa | 0 mm | - | 805 W/m² | - |
| 1788456350 | 33.89° C | 51% | 1017.4 hPa | 0 mm | - | 129 W/m² | - |
| 1788456046 | 35° C | 48% | 1017.5 hPa | 0 mm | - | 181 W/m² | - |
| 1788455746 | 35° C | 49% | 1017.6 hPa | 0 mm | - | 787 W/m² | - |
| 1788455442 | 34.44° C | 50% | 1017.6 hPa | 0 mm | - | 780 W/m² | - |
| 1788455140 | 34.44° C | 49% | 1017.7 hPa | 0 mm | - | 127 W/m² | - |
| 1788454836 | 35° C | 49% | 1017.9 hPa | 0 mm | - | 835 W/m² | - |
| 1788454533 | 35° C | 48% | 1017.9 hPa | 0 mm | - | 218 W/m² | - |
| 1788454229 | 35° C | 49% | 1017.8 hPa | 0 mm | - | 756 W/m² | - |
| 1788453928 | 34.44° C | 49% | 1018.2 hPa | 0 mm | - | 223 W/m² | - |
* Rain latest hour (hover to see other rain measurements)
** Current wind speed in m/s (hover to see current wind gust speed)